,,PA_Meas_PMT16A,,PR_Meas_QMR101_102,,RH_Meas_QMH101,,SR_Meas_QMS101,,TA_Meas_QMH101,,GenWind,,GenWind,
time,status,PA,status,PR,status,RH,status,SR,status,TA,status,DirAvg,status,SpdAvg,
2015-09-27, 08:15:04,INVALID - VALUE NOT AVAILABLE,0,VALID,0,VALID,101.795,INVALID - VALUE NOT AVAILABLE,0,VALID,20.756,INVALID,360,INVALID,0,
2015-09-27, 08:16:04,VALID,918.289,VALID,0,VALID,101.834,VALID,93.7961,VALID,20.795,VALID,30,VALID,0,
2015-09-27, 08:17:04,VALID,918.286,VALID,0,VALID,101.849,VALID,101.747,VALID,20.8145,VALID,35,VALID,0,
2015-09-27, 08:18:04,VALID,918.287,VALID,0,VALID,101.864,VALID,107.656,VALID,20.8145,VALID,55,VALID,0,
2015-09-27, 08:19:04,VALID,918.289,VALID,0,VALID,101.834,VALID,111.739,VALID,20.873,VALID,55,VALID,0,
2015-09-27, 08:20:04,VALID,918.278,VALID,0,VALID,101.887,VALID,113.995,VALID,20.873,VALID,55,VALID,0,
2015-09-27, 08:21:04,VALID,918.298,VALID,0,VALID,101.902,VALID,115.499,VALID,20.873,VALID,55,VALID,0,
2015-09-27, 08:22:04,VALID,918.326,VALID,0,VALID,101.925,VALID,117.863,VALID,20.873,VALID,55,VALID,0,
2015-09-27, 08:23:04,VALID,918.318,VALID,0,VALID,101.94,VALID,121.409,VALID,20.8925,VALID,55,VALID,0,
2015-09-27, 08:24:04,VALID,918.312,VALID,0,VALID,101.887,VALID,126.458,VALID,20.9316,VALID,55,VALID,0,
2015-09-27, 08:25:04,VALID,918.296,VALID,0,VALID,101.872,VALID,132.26,VALID,21.0096,VALID,55,VALID,0,
2015-09-27, 08:26:04,VALID,918.296,VALID,0,VALID,101.902,VALID,138.599,VALID,20.9901,VALID,55,VALID,0,
2015-09-27, 08:27:04,VALID,918.295,VALID,0,VALID,101.879,VALID,143.219,VALID,20.969,VALID,55,VALID,0,
2015-09-27, 08:28:04,VALID,918.301,VALID,0,VALID,101.818,VALID,143.541,VALID,21.0275,VALID,55,VALID,0,
2015-09-27, 08:29:04,VALID,918.263,VALID,0,VALID,101.765,VALID,141.07,VALID,21.125,VALID,55,VALID,0,
2015-09-27, 08:30:04,VALID,918.303,VALID,0,VALID,101.742,VALID,138.277,VALID,21.1478,VALID,55,VALID,0,
2015-09-27, 08:31:04,VALID,918.301,VALID,0,VALID,101.666,VALID,135.161,VALID,21.1868,VALID,55,VALID,0,
2015-09-27, 08:32:04,VALID,918.31,VALID,0,VALID,101.567,VALID,138.277,VALID,21.2258,VALID,55,VALID,0,
2015-09-27, 08:33:04,VALID,918.297,VALID,0,VALID,101.468,VALID,146.227,VALID,21.2047,VALID,79,VALID,0,
2015-09-27, 08:34:04,VALID,918.35,VALID,0,VALID,101.376,VALID,152.889,VALID,21.2242,VALID,108,VALID,0,
2015-09-27, 08:35:04,VALID,918.335,VALID,0,VALID,101.33,VALID,162.236,VALID,21.2827,VALID,81,VALID,0,
2015-09-27, 08:36:04,VALID,918.33,VALID,0,VALID,101.292,VALID,190.386,VALID,21.2827,VALID,114,VALID,0,
2015-09-27, 08:37:04,VALID,918.358,VALID,0,VALID,101.155,VALID,184.154,VALID,21.2632,VALID,116,VALID,0,
2015-09-27, 08:38:04,VALID,918.357,VALID,0,VALID,101.026,VALID,182.435,VALID,21.2242,VALID,134,VALID,0,
2015-09-27, 08:39:04,VALID,918.369,VALID,0,VALID,100.911,VALID,179.427,VALID,21.2047,VALID,134,VALID,0,
2015-09-27, 08:40:04,VALID,918.355,VALID,0,VALID,100.904,VALID,169.112,VALID,21.2047,VALID,144,VALID,0,
2015-09-27, 08:41:04,VALID,918.343,VALID,0,VALID,100.934,VALID,163.525,VALID,21.2632,VALID,156,VALID,0,
2015-09-27, 08:42:04,VALID,918.349,VALID,0,VALID,100.911,VALID,173.84,VALID,21.2437,VALID,164,VALID,0,
2015-09-27, 08:43:04,VALID,918.379,VALID,0,VALID,100.797,VALID,189.204,VALID,21.2437,VALID,153,VALID,0,
2015-09-27, 08:44:04,VALID,918.383,VALID,0,VALID,100.705,VALID,191.245,VALID,21.2242,VALID,155,VALID,0,
2015-09-27, 08:45:04,VALID,918.42,VALID,0,VALID,100.751,VALID,196.725,VALID,21.2632,VALID,164,VALID,0,
2015-09-27, 08:46:04,VALID,918.436,VALID,0,VALID,100.827,VALID,197.369,VALID,21.3217,VALID,64,VALID,0,
2015-09-27, 08:47:04,VALID,918.517,VALID,0,VALID,101.033,VALID,198.121,VALID,21.4372,VALID,100,VALID,0,
2015-09-27, 08:48:04,VALID,918.49,VALID,0,VALID,101.071,VALID,207.469,VALID,21.5347,VALID,122,VALID,0,
2015-09-27, 08:49:04,VALID,918.498,VALID,0,VALID,100.972,VALID,213.378,VALID,21.5949,VALID,154,VALID,0,
2015-09-27, 08:50:04,VALID,918.531,VALID,0,VALID,100.957,VALID,211.874,VALID,21.7103,VALID,154,VALID,0,
2015-09-27, 08:51:04,VALID,918.524,VALID,0,VALID,100.576,VALID,201.667,VALID,21.6713,VALID,132,VALID,0,
2015-09-27, 08:52:04,VALID,918.556,VALID,0,VALID,99.7295,VALID,187.377,VALID,21.6534,VALID,136,VALID,0,
2015-09-27, 08:53:04,VALID,918.565,VALID,0,VALID,98.8071,VALID,172.443,VALID,21.5737,VALID,146,VALID,0,
2015-09-27, 08:54:04,VALID,918.588,VALID,0,VALID,98.5403,VALID,157.938,VALID,21.5559,VALID,146,VALID,0,
2015-09-27, 08:55:04,VALID,918.607,VALID,0,VALID,98.7004,VALID,152.781,VALID,21.5542,VALID,146,VALID,0,
2015-09-27, 08:56:04,VALID,918.589,VALID,0,VALID,99.173,VALID,160.839,VALID,21.5932,VALID,167,VALID,0,
2015-09-27, 08:57:04,VALID,918.556,VALID,0,VALID,99.6533,VALID,194.039,VALID,21.6908,VALID,154,VALID,0,
2015-09-27, 08:58:04,VALID,918.568,VALID,0,VALID,99.0968,VALID,218.535,VALID,21.6518,VALID,123,VALID,0,
2015-09-27, 08:59:04,VALID,918.602,VALID,0,VALID,98.7614,VALID,234.866,VALID,21.6518,VALID,121,VALID,0,
2015-09-27, 09:00:04,VALID,918.613,VALID,0,VALID,98.9672,VALID,251.412,VALID,21.7298,VALID,119,VALID,0,
2015-09-27, 09:01:04,VALID,918.612,VALID,0,VALID,99.2416,VALID,245.288,VALID,21.8469,VALID,131,VALID,0,
2015-09-27, 09:02:04,VALID,918.636,VALID,0,VALID,99.0206,VALID,242.387,VALID,21.9444,VALID,135,VALID,0,
2015-09-27, 09:03:04,VALID,918.674,VALID,0,VALID,98.4259,VALID,241.205,VALID,21.9835,VALID,140,VALID,0,
2015-09-27, 09:04:04,VALID,918.65,VALID,0,VALID,97.6636,VALID,240.991,VALID,22.042,VALID,191,VALID,0,
2015-09-27, 09:05:04,VALID,918.637,VALID,0,VALID,96.8555,VALID,239.271,VALID,22.0615,VALID,227,VALID,0,
2015-09-27, 09:06:04,VALID,918.632,VALID,0,VALID,96.4515,VALID,237.445,VALID,22.1005,VALID,208,VALID,0,
2015-09-27, 09:07:04,VALID,918.622,VALID,0,VALID,96.0932,VALID,238.304,VALID,22.1379,VALID,185,VALID,0,
2015-09-27, 09:08:04,VALID,918.629,VALID,0,VALID,95.834,VALID,244.751,VALID,22.1981,VALID,196,VALID,0,
2015-09-27, 09:09:04,VALID,918.62,VALID,0,VALID,95.5748,VALID,251.09,VALID,22.255,VALID,187,VALID,0,
2015-09-27, 09:10:04,VALID,918.617,VALID,0,VALID,95.2012,VALID,258.289,VALID,22.255,VALID,200,VALID,0,
2015-09-27, 09:11:04,VALID,918.622,VALID,0,VALID,92.6855,VALID,244.644,VALID,22.2354,VALID,196,VALID,0,
2015-09-27, 09:12:04,VALID,918.639,VALID,0,VALID,94.5532,VALID,236.478,VALID,22.294,VALID,175,VALID,0,
2015-09-27, 09:13:04,VALID,918.638,VALID,0,VALID,96.1923,VALID,226.593,VALID,22.372,VALID,162,VALID,0,
2015-09-27, 09:14:04,VALID,918.676,VALID,0,VALID,94.8353,VALID,214.99,VALID,22.4111,VALID,162,VALID,0,
2015-09-27, 09:15:04,VALID,918.711,VALID,0,VALID,93.2191,VALID,203.601,VALID,22.4518,VALID,164,VALID,0,
2015-09-27, 09:16:04,VALID,918.729,VALID,0,VALID,93.0972,VALID,197.907,VALID,22.4908,VALID,162,VALID,0,
2015-09-27, 09:17:04,VALID,918.735,VALID,0,VALID,89.7505,VALID,197.584,VALID,22.3933,VALID,162,VALID,0,
2015-09-27, 09:18:04,VALID,918.746,VALID,0,VALID,94.3245,VALID,200.378,VALID,22.3542,VALID,147,VALID,0,
2015-09-27, 09:19:04,VALID,918.733,VALID,0,VALID,93.5088,VALID,205.642,VALID,22.3347,VALID,162,VALID,0,
2015-09-27, 09:20:04,VALID,918.7,VALID,0,VALID,93.6308,VALID,211.767,VALID,22.3542,VALID,143,VALID,0,
2015-09-27, 09:21:04,VALID,918.671,VALID,0,VALID,89.5904,VALID,214.775,VALID,22.3737,VALID,144,VALID,0,
2015-09-27, 09:22:04,VALID,918.654,VALID,0,VALID,88.5612,VALID,218.643,VALID,22.3152,VALID,144,VALID,0,
2015-09-27, 09:23:04,VALID,918.656,VALID,0,VALID,93.3259,VALID,224.982,VALID,22.3347,VALID,146,VALID,0,
2015-09-27, 09:24:04,VALID,918.642,VALID,0,VALID,91.016,VALID,232.18,VALID,22.4128,VALID,185,VALID,0,
2015-09-27, 09:25:04,VALID,918.655,VALID,0,VALID,88.2029,VALID,240.776,VALID,22.4713,VALID,188,VALID,0,
2015-09-27, 09:26:04,VALID,918.64,VALID,0,VALID,87.6693,VALID,249.478,VALID,22.5103,VALID,188,VALID,0,
2015-09-27, 09:27:04,VALID,918.614,VALID,0,VALID,87.5397,VALID,260.222,VALID,22.5884,VALID,188,VALID,0,
2015-09-27, 09:28:04,VALID,918.67,VALID,0,VALID,86.3352,VALID,275.372,VALID,22.7055,VALID,187,VALID,0,
2015-09-27, 09:29:04,VALID,918.693,VALID,0,VALID,84.2387,VALID,292.24,VALID,22.7641,VALID,183,VALID,0,
2015-09-27, 09:30:04,VALID,918.68,VALID,0,VALID,82.2948,VALID,303.414,VALID,22.7818,VALID,177,VALID,0,
2015-09-27, 09:31:04,VALID,918.685,VALID,0,VALID,83.5221,VALID,311.902,VALID,22.8421,VALID,146,VALID,0,
2015-09-27, 09:32:04,VALID,918.705,VALID,0,VALID,82.6759,VALID,323.183,VALID,22.7428,VALID,142,VALID,0,
2015-09-27, 09:33:04,VALID,918.701,VALID,0,VALID,83.1943,VALID,334.142,VALID,22.7641,VALID,142,VALID,0,
2015-09-27, 09:34:04,VALID,918.706,VALID,0,VALID,82.2185,VALID,350.58,VALID,22.8014,VALID,143,VALID,0,
2015-09-27, 09:35:04,VALID,918.692,VALID,0,VALID,81.4257,VALID,367.879,VALID,22.8794,VALID,151,VALID,0,
2015-09-27, 09:36:04,VALID,918.719,VALID,0,VALID,80.9912,VALID,371.531,VALID,22.9575,VALID,173,VALID,0,
2015-09-27, 09:37:04,VALID,918.695,VALID,0,VALID,80.8692,VALID,391.301,VALID,23.0551,VALID,173,VALID,0,
2015-09-27, 09:38:04,VALID,918.7,VALID,0,VALID,80.9759,VALID,407.632,VALID,23.2112,VALID,170,VALID,0,
2015-09-27, 09:39:04,VALID,918.711,VALID,0,VALID,80.7625,VALID,415.582,VALID,23.3478,VALID,153,VALID,0,
2015-09-27, 09:40:04,VALID,918.743,VALID,0,VALID,81.4943,VALID,417.301,VALID,23.4064,VALID,151,VALID,0,
2015-09-27, 09:41:04,VALID,918.775,VALID,0,VALID,81.2504,VALID,399.896,VALID,23.5235,VALID,152,VALID,0,
2015-09-27, 09:42:04,VALID,918.757,VALID,0,VALID,79.9468,VALID,380.234,VALID,23.6602,VALID,152,VALID,0,
2015-09-27, 09:43:04,VALID,918.75,VALID,0,VALID,80.2669,VALID,369.383,VALID,23.8163,VALID,152,VALID,0,
2015-09-27, 09:44:04,VALID,918.765,VALID,0,VALID,79.2683,VALID,369.06,VALID,23.9725,VALID,152,VALID,0,
2015-09-27, 09:45:04,VALID,918.758,VALID,0,VALID,78.1171,VALID,383.672,VALID,24.0701,VALID,131,VALID,0,
2015-09-27, 09:46:04,VALID,918.762,VALID,0,VALID,78.666,VALID,400.218,VALID,23.8163,VALID,132,VALID,0,
2015-09-27, 09:47:04,VALID,918.752,VALID,0,VALID,79.7409,VALID,404.838,VALID,23.7187,VALID,93,VALID,0,
2015-09-27, 09:48:04,VALID,918.776,VALID,0,VALID,79.2149,VALID,388.937,VALID,23.6211,VALID,116,VALID,0,
2015-09-27, 09:49:04,VALID,918.755,VALID,0,VALID,80.023,VALID,351.977,VALID,23.6016,VALID,114,VALID,0,
2015-09-27, 09:50:04,VALID,918.767,VALID,0,VALID,80.3432,VALID,313.621,VALID,23.6016,VALID,121,VALID,0,
2015-09-27, 09:51:04,VALID,918.778,VALID,0,VALID,78.9481,VALID,288.694,VALID,23.4454,VALID,133,VALID,0,
2015-09-27, 09:52:04,VALID,918.756,VALID,0,VALID,80.0078,VALID,277.735,VALID,23.3461,VALID,140,VALID,0,
2015-09-27, 09:53:04,VALID,918.727,VALID,0,VALID,80.793,VALID,281.173,VALID,23.3851,VALID,79,VALID,0,
2015-09-27, 09:54:04,VALID,918.757,VALID,0,VALID,80.2212,VALID,290.951,VALID,23.3851,VALID,99,VALID,0,
2015-09-27, 09:55:04,VALID,918.746,VALID,0,VALID,82.8132,VALID,305.025,VALID,23.3088,VALID,95,VALID,0,
2015-09-27, 09:56:04,VALID,918.744,VALID,0,VALID,80.8387,VALID,326.299,VALID,23.2094,VALID,112,VALID,0,
2015-09-27, 09:57:04,VALID,918.742,VALID,0,VALID,79.9544,VALID,358.746,VALID,23.2094,VALID,117,VALID,0,
2015-09-27, 09:58:04,VALID,918.724,VALID,0,VALID,79.8629,VALID,391.301,VALID,23.268,VALID,117,VALID,0,
2015-09-27, 09:59:04,VALID,918.719,VALID,0,VALID,76.1198,VALID,419.987,VALID,23.3461,VALID,117,VALID,0,
2015-09-27, 10:00:04,VALID,918.709,VALID,0,VALID,77.7817,VALID,437.715,VALID,23.5022,VALID,119,VALID,0,
2015-09-27, 10:01:04,VALID,918.667,VALID,0,VALID,78.2315,VALID,442.443,VALID,23.6584,VALID,124,VALID,0,
2015-09-27, 10:02:04,VALID,918.683,VALID,0,VALID,77.431,VALID,439.542,VALID,23.8926,VALID,114,VALID,0,
2015-09-27, 10:03:04,VALID,918.654,VALID,0,VALID,75.4871,VALID,462.856,VALID,24.0311,VALID,43,VALID,1.07539,
2015-09-27, 10:04:04,VALID,918.644,VALID,0,VALID,77.2709,VALID,455.765,VALID,24.0896,VALID,53,VALID,0,
2015-09-27, 10:05:04,VALID,918.646,VALID,0,VALID,78.6432,VALID,458.989,VALID,24.2654,VALID,78,VALID,0,
2015-09-27, 10:06:04,VALID,918.628,VALID,0,VALID,77.3091,VALID,476.394,VALID,24.2654,VALID,128,VALID,0,
2015-09-27, 10:07:04,VALID,918.607,VALID,0,VALID,75.5785,VALID,476.716,VALID,24.2263,VALID,135,VALID,0,
2015-09-27, 10:08:04,VALID,918.598,VALID,0,VALID,74.8391,VALID,474.138,VALID,24.1873,VALID,136,VALID,0,
2015-09-27, 10:09:04,VALID,918.572,VALID,0,VALID,74.9915,VALID,476.609,VALID,24.1287,VALID,126,VALID,0,
2015-09-27, 10:10:04,VALID,918.557,VALID,0,VALID,73.1695,VALID,474.46,VALID,24.1873,VALID,126,VALID,0,
2015-09-27, 10:11:04,VALID,918.558,VALID,0,VALID,74.74,VALID,481.551,VALID,24.3825,VALID,126,VALID,0,
2015-09-27, 10:12:04,VALID,918.548,VALID,0,VALID,74.679,VALID,488.105,VALID,24.6345,VALID,126,VALID,0,
2015-09-27, 10:13:04,VALID,918.545,VALID,0,VALID,74.153,VALID,490.469,VALID,24.9488,VALID,126,VALID,0,
2015-09-27, 10:14:04,VALID,918.529,VALID,0,VALID,74.9306,VALID,490.576,VALID,25.0659,VALID,119,VALID,0,
2015-09-27, 10:15:04,VALID,918.562,VALID,0,VALID,74.8162,VALID,467.799,VALID,25.1226,VALID,142,VALID,0,
2015-09-27, 10:16:04,VALID,918.534,VALID,0,VALID,72.979,VALID,425.252,VALID,25.1422,VALID,154,VALID,0,
2015-09-27, 10:17:04,VALID,918.537,VALID,0,VALID,72.9713,VALID,432.021,VALID,25.2203,VALID,189,VALID,0,
2015-09-27, 10:18:04,VALID,918.529,VALID,0,VALID,71.8507,VALID,440.509,VALID,25.1617,VALID,218,VALID,0,
2015-09-27, 10:19:04,VALID,918.522,VALID,0,VALID,72.8951,VALID,431.913,VALID,25.064,VALID,195,VALID,0,
2015-09-27, 10:20:04,VALID,918.52,VALID,0,VALID,72.1099,VALID,419.128,VALID,25.0055,VALID,199,VALID,0,
2015-09-27, 10:21:04,VALID,918.494,VALID,0,VALID,72.3157,VALID,428.153,VALID,24.9469,VALID,223,VALID,0,
2015-09-27, 10:22:04,VALID,918.467,VALID,0,VALID,72.7808,VALID,416.872,VALID,24.9078,VALID,230,VALID,0,
2015-09-27, 10:23:04,VALID,918.496,VALID,0,VALID,73.1009,VALID,415.475,VALID,24.8883,VALID,230,VALID,0,
2015-09-27, 10:24:04,VALID,918.508,VALID,0,VALID,74.0081,VALID,444.914,VALID,24.9274,VALID,231,VALID,0,
2015-09-27, 10:25:04,VALID,918.49,VALID,0,VALID,73.1619,VALID,472.096,VALID,25.0055,VALID,231,VALID,0,
2015-09-27, 10:26:04,VALID,918.51,VALID,0,VALID,72.9561,VALID,517.651,VALID,25.025,VALID,184,VALID,0,
2015-09-27, 10:27:04,VALID,918.507,VALID,0,VALID,72.6664,VALID,492.833,VALID,25.1031,VALID,184,VALID,0,
2015-09-27, 10:28:04,VALID,918.468,VALID,0,VALID,72.6588,VALID,509.056,VALID,25.064,VALID,184,VALID,0,
2015-09-27, 10:29:04,VALID,918.496,VALID,0,VALID,73.1467,VALID,480.692,VALID,25.1031,VALID,205,VALID,0,
2015-09-27, 10:30:04,VALID,918.5,VALID,0,VALID,72.7503,VALID,469.303,VALID,25.0836,VALID,226,VALID,0,
2015-09-27, 10:31:04,VALID,918.494,VALID,0,VALID,72.7045,VALID,463.501,VALID,25.1226,VALID,234,VALID,0,
2015-09-27, 10:32:04,VALID,918.476,VALID,0,VALID,70.4785,VALID,459.633,VALID,25.2398,VALID,213,VALID,0,
2015-09-27, 10:33:04,VALID,918.478,VALID,0,VALID,70.0439,VALID,456.195,VALID,25.3179,VALID,219,VALID,0,
2015-09-27, 10:34:04,VALID,918.477,VALID,0,VALID,70.5547,VALID,453.079,VALID,25.3941,VALID,248,VALID,0,
2015-09-27, 10:35:04,VALID,918.467,VALID,0,VALID,72.7503,VALID,445.666,VALID,25.3941,VALID,215,VALID,0,
2015-09-27, 10:36:04,VALID,918.482,VALID,0,VALID,73.1391,VALID,439.219,VALID,25.3941,VALID,239,VALID,0,
2015-09-27, 10:37:04,VALID,918.455,VALID,0,VALID,75.7463,VALID,439.434,VALID,25.2398,VALID,242,VALID,0,
2015-09-27, 10:38:04,VALID,918.459,VALID,0,VALID,74.4045,VALID,464.683,VALID,25.1012,VALID,218,VALID,0,
2015-09-27, 10:39:04,VALID,918.461,VALID,0,VALID,75.1974,VALID,474.353,VALID,25.025,VALID,230,VALID,0,
2015-09-27, 10:40:04,VALID,918.442,VALID,0,VALID,74.9153,VALID,496.7,VALID,25.025,VALID,225,VALID,0,
2015-09-27, 10:41:04,VALID,918.415,VALID,0,VALID,75.6014,VALID,488.213,VALID,25.0836,VALID,227,VALID,0,
2015-09-27, 10:42:04,VALID,918.425,VALID,0,VALID,74.0844,VALID,471.022,VALID,25.1226,VALID,222,VALID,0,
2015-09-27, 10:43:04,VALID,918.423,VALID,0,VALID,73.4974,VALID,453.831,VALID,25.2007,VALID,236,VALID,0,
2015-09-27, 10:44:04,VALID,918.428,VALID,0,VALID,73.3373,VALID,448.674,VALID,25.1422,VALID,245,VALID,0,
2015-09-27, 10:45:04,VALID,918.424,VALID,0,VALID,74.6714,VALID,460.6,VALID,25.2379,VALID,188,VALID,0,
2015-09-27, 10:46:04,VALID,918.41,VALID,0,VALID,72.4148,VALID,477.898,VALID,25.2183,VALID,184,VALID,0,
2015-09-27, 10:47:04,VALID,918.383,VALID,0,VALID,71.4467,VALID,498.849,VALID,25.2574,VALID,184,VALID,0,
2015-09-27, 10:48:04,VALID,918.356,VALID,0,VALID,70.0287,VALID,586.199,VALID,25.1598,VALID,149,VALID,0,
2015-09-27, 10:49:04,VALID,918.361,VALID,0,VALID,70.4556,VALID,602.423,VALID,25.1383,VALID,185,VALID,0,
2015-09-27, 10:50:04,VALID,918.328,VALID,0,VALID,71.2561,VALID,558.264,VALID,25.3746,VALID,169,VALID,0,
2015-09-27, 10:51:04,VALID,918.306,VALID,0,VALID,68.8013,VALID,548.165,VALID,25.6089,VALID,168,VALID,0,
2015-09-27, 10:52:04,VALID,918.31,VALID,0,VALID,68.161,VALID,502.073,VALID,25.5308,VALID,150,VALID,0,
2015-09-27, 10:53:04,VALID,918.309,VALID,0,VALID,70.5014,VALID,467.154,VALID,25.4331,VALID,127,VALID,0.0992187,
2015-09-27, 10:54:04,VALID,918.336,VALID,0,VALID,70.5547,VALID,427.401,VALID,25.3746,VALID,143,VALID,0,
2015-09-27, 10:55:04,VALID,918.343,VALID,0,VALID,69.4417,VALID,406.665,VALID,25.3355,VALID,137,VALID,0,
2015-09-27, 10:56:04,VALID,918.329,VALID,0,VALID,70.6462,VALID,403.227,VALID,25.2183,VALID,149,VALID,0,
2015-09-27, 10:57:04,VALID,918.344,VALID,0,VALID,70.2345,VALID,410.21,VALID,25.2788,VALID,189,VALID,1.3082,
2015-09-27, 10:58:04,VALID,918.346,VALID,0,VALID,70.3946,VALID,432.773,VALID,25.2984,VALID,182,VALID,0.86875,
2015-09-27, 10:59:04,VALID,918.336,VALID,0,VALID,69.6628,VALID,465.865,VALID,25.2965,VALID,180,VALID,0,
2015-09-27, 11:00:04,VALID,918.326,VALID,0,VALID,70.3717,VALID,521.197,VALID,25.4136,VALID,163,VALID,0,
2015-09-27, 11:01:04,VALID,918.333,VALID,0,VALID,72.2776,VALID,592.538,VALID,25.4722,VALID,128,VALID,0.00195313,
2015-09-27, 11:02:04,VALID,918.319,VALID,0,VALID,70.7453,VALID,602.745,VALID,25.5913,VALID,164,VALID,0.0121094,
2015-09-27, 11:03:04,VALID,918.286,VALID,0,VALID,69.4951,VALID,651.416,VALID,25.6284,VALID,147,VALID,0,
2015-09-27, 11:04:04,VALID,918.278,VALID,0,VALID,71.3933,VALID,678.706,VALID,25.6675,VALID,58,VALID,0.00898437,
2015-09-27, 11:05:04,VALID,918.258,VALID,0,VALID,70.1964,VALID,625.63,VALID,25.7085,VALID,57,VALID,0.136328,
2015-09-27, 11:06:04,VALID,918.24,VALID,0,VALID,70.2422,VALID,531.511,VALID,25.5913,VALID,58,VALID,0.0417969,
2015-09-27, 11:07:04,VALID,918.209,VALID,0,VALID,71.6601,VALID,484.989,VALID,25.648,VALID,60,VALID,0,
2015-09-27, 11:08:04,VALID,918.194,VALID,0,VALID,70.2269,VALID,477.683,VALID,25.9019,VALID,90,VALID,0,
2015-09-27, 11:09:04,VALID,918.202,VALID,0,VALID,69.4493,VALID,504.329,VALID,26.1753,VALID,103,VALID,0,
2015-09-27, 11:10:04,VALID,918.166,VALID,0,VALID,68.4964,VALID,629.283,VALID,26.3491,VALID,108,VALID,0,
2015-09-27, 11:11:04,VALID,918.128,VALID,0,VALID,67.0708,VALID,650.986,VALID,26.3316,VALID,87,VALID,0.211719,
2015-09-27, 11:12:04,VALID,918.112,VALID,0,VALID,67.0403,VALID,678.598,VALID,26.2945,VALID,72,VALID,0,
2015-09-27, 11:13:04,VALID,918.082,VALID,0,VALID,68.2829,VALID,709.864,VALID,26.0386,VALID,109,VALID,0,
2015-09-27, 11:14:04,VALID,918.082,VALID,0,VALID,68.9462,VALID,716.203,VALID,25.9214,VALID,132,VALID,0.187891,
2015-09-27, 11:15:04,VALID,918.06,VALID,0,VALID,70.1507,VALID,678.383,VALID,25.7847,VALID,129,VALID,0,
2015-09-27, 11:16:04,VALID,918.003,VALID,0,VALID,71.4543,VALID,671.4,VALID,25.7847,VALID,117,VALID,2.1082,
2015-09-27, 11:17:04,VALID,918.034,VALID,0,VALID,69.8534,VALID,590.711,VALID,25.6089,VALID,139,VALID,0.0121094,
2015-09-27, 11:18:04,VALID,918.014,VALID,0,VALID,69.396,VALID,552.785,VALID,25.5679,VALID,162,VALID,0.00351562,
2015-09-27, 11:19:04,VALID,918.002,VALID,0,VALID,70.0744,VALID,567.182,VALID,25.5308,VALID,146,VALID,0.164453,
2015-09-27, 11:20:04,VALID,917.954,VALID,0,VALID,69.8762,VALID,616.497,VALID,25.5308,VALID,170,VALID,0.269922,
2015-09-27, 11:21:04,VALID,917.898,VALID,0,VALID,69.0224,VALID,667.639,VALID,25.5308,VALID,173,VALID,0.00195313,
2015-09-27, 11:22:04,VALID,917.927,VALID,0,VALID,69.1063,VALID,753.377,VALID,25.6675,VALID,175,VALID,0,
2015-09-27, 11:23:04,VALID,917.877,VALID,0,VALID,69.9448,VALID,769.708,VALID,25.9214,VALID,171,VALID,0,
2015-09-27, 11:24:04,VALID,917.878,VALID,0,VALID,68.1305,VALID,791.304,VALID,26.1342,VALID,151,VALID,0,
2015-09-27, 11:25:04,VALID,917.865,VALID,0,VALID,66.3085,VALID,782.386,VALID,26.3296,VALID,194,VALID,0,
2015-09-27, 11:26:04,VALID,917.864,VALID,0,VALID,65.6376,VALID,758.749,VALID,26.5074,VALID,190,VALID,0,
2015-09-27, 11:27:04,VALID,917.839,VALID,0,VALID,65.9121,VALID,746.501,VALID,26.6832,VALID,168,VALID,0.0867188,
2015-09-27, 11:28:04,VALID,917.812,VALID,0,VALID,68.161,VALID,738.121,VALID,26.6246,VALID,84,VALID,1.73359,
2015-09-27, 11:29:04,VALID,917.866,VALID,0,VALID,64.0062,VALID,743.708,VALID,26.3902,VALID,84,VALID,0.422266,
2015-09-27, 11:30:04,VALID,917.836,VALID,0,VALID,67.6883,VALID,743.063,VALID,26.4097,VALID,78,VALID,0.155078,
2015-09-27, 11:31:04,VALID,917.822,VALID,0,VALID,65.0887,VALID,753.807,VALID,26.5054,VALID,49,VALID,2.33008,
2015-09-27, 11:32:04,VALID,917.816,VALID,0,VALID,66.4076,VALID,750.262,VALID,26.4097,VALID,44,VALID,2.11484,
2015-09-27, 11:33:04,VALID,917.818,VALID,0,VALID,68.5803,VALID,748.757,VALID,26.4077,VALID,64,VALID,0.493359,
2015-09-27, 11:34:04,VALID,917.816,VALID,0,VALID,67.0098,VALID,748.65,VALID,26.603,VALID,97,VALID,0.394531,
2015-09-27, 11:35:04,VALID,917.791,VALID,0,VALID,64.4484,VALID,758.535,VALID,26.7788,VALID,125,VALID,0.0941406,
2015-09-27, 11:36:04,VALID,917.797,VALID,0,VALID,67.0937,VALID,739.732,VALID,26.8179,VALID,83,VALID,0.0417969,
2015-09-27, 11:37:04,VALID,917.771,VALID,0,VALID,64.7457,VALID,679.135,VALID,27.0328,VALID,55,VALID,0.186719,
2015-09-27, 11:38:04,VALID,917.766,VALID,0,VALID,65.8358,VALID,657.97,VALID,27.0328,VALID,61,VALID,0.848828,
2015-09-27, 11:39:04,VALID,917.727,VALID,0,VALID,63.1524,VALID,637.986,VALID,26.857,VALID,57,VALID,0.801953,
2015-09-27, 11:40:04,VALID,917.727,VALID,0,VALID,63.4726,VALID,663.449,VALID,26.7202,VALID,70,VALID,1.59727,
2015-09-27, 11:41:04,VALID,917.724,VALID,0,VALID,67.4672,VALID,692.458,VALID,26.5054,VALID,48,VALID,1.7043,
2015-09-27, 11:42:04,VALID,917.704,VALID,0,VALID,67.1089,VALID,682.789,VALID,26.5835,VALID,24,VALID,0.520312,
2015-09-27, 11:43:04,VALID,917.693,VALID,0,VALID,66.1636,VALID,650.878,VALID,26.8179,VALID,23,VALID,0.0105469,
2015-09-27, 11:44:04,VALID,917.661,VALID,0,VALID,63.4421,VALID,565.14,VALID,26.857,VALID,83,VALID,0.369922,
2015-09-27, 11:45:04,VALID,917.653,VALID,0,VALID,65.5309,VALID,499.601,VALID,26.8374,VALID,38,VALID,2.36641,
2015-09-27, 11:46:04,VALID,917.63,VALID,0,VALID,66.4609,VALID,483.27,VALID,26.8765,VALID,60,VALID,0.028125,
2015-09-27, 11:47:04,VALID,917.626,VALID,0,VALID,64.5246,VALID,506.478,VALID,26.9742,VALID,39,VALID,0,
2015-09-27, 11:48:04,VALID,917.6,VALID,0,VALID,65.5461,VALID,560.628,VALID,26.8765,VALID,58,VALID,0,
2015-09-27, 11:49:04,VALID,917.571,VALID,0,VALID,65.2107,VALID,599.522,VALID,26.6812,VALID,127,VALID,0.242578,
2015-09-27, 11:50:04,VALID,917.586,VALID,0,VALID,66.8116,VALID,577.496,VALID,26.7593,VALID,53,VALID,0,
2015-09-27, 11:51:04,VALID,917.538,VALID,0,VALID,65.5842,VALID,541.289,VALID,26.8374,VALID,102,VALID,0,
2015-09-27, 11:52:04,VALID,917.535,VALID,0,VALID,64.4407,VALID,542.255,VALID,26.7788,VALID,159,VALID,0.0417969,
2015-09-27, 11:53:04,VALID,917.516,VALID,0,VALID,62.9313,VALID,641.316,VALID,26.8179,VALID,174,VALID,0.192969,
2015-09-27, 11:54:04,VALID,917.477,VALID,0,VALID,64.578,VALID,647.118,VALID,26.7984,VALID,186,VALID,0,
2015-09-27, 11:55:04,VALID,917.443,VALID,0,VALID,64.7076,VALID,666.35,VALID,26.8765,VALID,158,VALID,0,
2015-09-27, 11:56:04,VALID,917.397,VALID,0,VALID,62.4739,VALID,688.053,VALID,26.9156,VALID,158,VALID,0,
2015-09-27, 11:57:04,VALID,917.395,VALID,0,VALID,62.9008,VALID,720.178,VALID,27.0523,VALID,150,VALID,0,
2015-09-27, 11:58:04,VALID,917.38,VALID,0,VALID,63.1448,VALID,731.567,VALID,27.2868,VALID,150,VALID,0,
2015-09-27, 11:59:04,VALID,917.375,VALID,0,VALID,64.7304,VALID,697.186,VALID,27.3454,VALID,107,VALID,0.0269531,